www.pogodaiklimat.ru
ПОГОДА в Равенне
Время
и дата
10:35 25.09
10:55 25.09
11:15 25.09
11:35 25.09
11:55 25.09
12:15 25.09
12:35 25.09
12:55 25.09
13:15 25.09
13:35 25.09
13:55 25.09
14:15 25.09
14:35 25.09
14:55 25.09
15:15 25.09
15:35 25.09
15:55 25.09
16:15 25.09
16:35 25.09
16:55 25.09
17:15 25.09
17:35 25.09
17:55 25.09
18:15 25.09
18:35 25.09
18:55 25.09
19:15 25.09
19:35 25.09
19:55 25.09
20:15 25.09
20:35 25.09
20:55 25.09
21:15 25.09
21:35 25.09
21:55 25.09
22:15 25.09
22:35 25.09
22:55 25.09
23:15 25.09
23:35 25.09
23:55 25.09
00:15 26.09
00:35 26.09
00:55 26.09
01:15 26.09
01:35 26.09
01:55 26.09
02:15 26.09
Ветер
(напр.,м/с)
Видим. Явления Облачность Т
(С)
Тd
(С)
f
(%)
Тe
(С)
Тes
(С)
Комфортность P
(гПа)
Po
(гПа)
Тmin
(С)
Tmax
(С)
R
(мм)
R24
(мм)
S
(см)
З 4 16 км 8/8 450 м +17.7 +12.9 73 +17 +18 960.6
З 3 16 км 10/10 510 м +17.6 +12.7 73 +18 +18 960.6
З 3 16 км 10/10 570 м +17.2 +12.5 74 +17 +17 960.6
З 3 16 км 8/5 570 m
[Ac]
+17.9 +13.0 73 +18 +21 960.3
З 3
{7}
16 км 10/8 660 m
[Ac]
+17.3 +12.3 72 +17 +18 960.3
З 4 16 км 8/8 570 м +16.5 +12.3 76 +16 +17 960.3
З 5 16 км 5/0 2550 m
[Ac]
+17.1 +11.8 71 +16 +20 959.9
З 6 16 км 8/8 1020 м +16.7 +12.1 74 +16 +17 959.9
ЮЗ 5 16 км 8/8 570 м +17.8 +12.5 71 +17 +19 959.9
ЮЗ 5 16 км 8/8 630 м +17.6 +12.1 70 +17 +18 959.9
З 5 8 км 10/10 420 м +15.6 +12.5 82 +14 +14 960.3
З 5
{7}
8 км 10/10 360 м +15.2 +12.6 84 +14 +14 960.6
З 4 16 км 10/10 300 м +15.1 +13.1 88 +14 +14 960.6
ЮЗ 3 16 км 8/8 300 м +15.6 +13.5 87 +15 +17 960.6
ЮЗ 5 16 км 10/10 300 м +16.4 +13.9 85 +15 +15 960.6
З 5
{7}
16 км 10/10 360 м +15.8 +12.9 83 +15 +15 960.9
З 5
{10}
6 км 10/10 360 м +15.0 +12.3 84 +14 +14 961.2
З 4 8 км 10/10 210 м +14.5 +12.5 88 +13 +13 961.2
З 5 11 км 10/10 240 м +14.3 +12.6 90 +13 +13 961.2
З 3 16 км 10/10 240 м +14.5 +12.8 90 +14 +14 961.6
З 5
{7}
16 км 10/10 240 м +14.8 +13.2 90 +13 +13 961.6
З 4 16 км 8/8 300 м +14.6 +12.5 87 +13 +14 961.6
З 3 16 км 8/8 390 m
[Ac]
+14.2 +12.1 87 +13 +13 961.9
З 3 16 км 8/5 390 m
[Ac]
+14.0 +12.1 88 +13 +13 962.2
З 3 16 км 8/5 360 m
[Ac]
+13.7 +12.0 89 +12 +12 962.2
З 4 16 км 8/8 540 м +13.9 +12.3 90 +12 +12 962.5
З 4 16 км 10/10 450 м +14.0 +12.2 89 +12 +12 962.2
З 4 16 км 10/8 360 m
[Ac]
+13.8 +12.0 89 +12 +12 962.5
ЮЗ 2 16 км 10/10 300 м +13.7 +12.0 89 +13 +13 962.2
З 3 11 км 10/10 210 м +13.7 +12.2 91 +12 +12 962.5
З 5 16 км 10/10 210 м +13.6 +12.1 91 +12 +12 962.5
З 3 16 км 10/10 210 м +13.5 +12.0 91 +12 +12 962.5
З 4
{7}
16 км 10/10 210 м +13.2 +11.7 91 +11 +11 962.9
З 4 16 км 10/10 270 м +13.2 +11.7 91 +11 +11 962.5
З 6
{10}
11 км 10/10 270 м +13.0 +11.5 91 +11 +11 962.9
З 5 8 км 10/10 270 м +13.0 +11.5 91 +11 +11 962.9
З 3 16 км 10/10 210 м +12.6 +11.0 90 +11 +11 962.9
З 4 11 км 10/10 210 м +12.7 +11.2 91 +11 +11 962.9
З 4 16 км 10/10 210 м +12.7 +11.2 91 +11 +11 962.9
З 3 16 км 10/10 210 м +12.7 +11.3 91 +11 +11 962.9
ЮЗ 3 16 км 10/10 270 м +12.6 +11.1 91 +11 +11 962.9
ЮЗ 2 16 км 10/10 270 м +12.5 +11.0 91 +12 +12 962.5
ЮЗ 2 16 км 10/8 210 m
[Ac]
+12.1 +10.6 91 +11 +11 962.5
ЮЗ 2 16 км 10/5 1320 m
[Ac]
+12.0 +10.5 91 +11 +11 962.2
ЮЗ 2 16 км 10/5 390 m
[Ac]
+12.0 +10.6 91 +11 +11 962.2
З 2 16 км 10/8 270 m
[Ac]
+12.2 +11.0 92 +11 +11 961.9
ЮЗ 3 16 км 10/10 270 м +12.3 +11.0 92 +11 +11 961.9
ЮЗ 2 16 км 10/10 210 м +12.6 +11.3 92 +12 +12 961.6
Местоположение метеостанции Portage County Airport: широта 41.2100 долгота -81.2520 высота над уровнем моря 365 м.
В архиве по умолчанию представлена погода в Равенне за последние 1-2 суток. Обновление информации о фактической погоде в базе происходит ежечасно! Архивные данные за месяц целиком и за предыдущие месяцы Вы можете получить, выбрав интересующий диапазон дат из раскрывающегося списка и нажав кнопку "Ввод!".
Внимание! Архив погоды МЕТАР в базе сайта по станциям, не включенным в климатический монитор, хранится не более 60 дней. Нет смысла пытаться выбрать более раннюю дату.
*Определитесь, кто Вы:
Внимание! Время в таблицах - местное (без учета летнего времени). Для получения всемирного времени необходимо вычесть поправку, которая равна -5 ч.
Смотрите также архив погоды в соседних городах и на ближайших метеорологических станциях:
Партнеры нашего сайта:      
Пояснения к столбцам:
  • Ветер - указаны скорость ветра в м/с - средняя за 10 мин, порывы в срок и между сроками (в фигурных скобках) и направление, откуда дует ветер: С - северный,
  • СВ - северо-восточный, В - восточный, ЮВ - юго-восточный, Ю - южный, ЮЗ - юго-западный, З - западный, СЗ - северо-западный.
  • Видимость - горизонтальная дальность видимости в метрах или километрах. При видимости от 1 до 10 км при отсутствии осадков обычно наблюдается дымка, при ухудшении видимости до 1 км и менее - туман. В сухую погоду видимость может ухудшаться дымом, пылью или мглою.
  • Явления - указаны атмосферные явления, наблюдавшиеся в срок или в последний час перед сроком; фигурными скобками обозначены явления, наблюдавшиеся между сроками (за 1-3 часа до срока); квадратными скобками обозначены град или гололедные отложения с указанием их диаметра в мм.
  • Облачность - указаны через наклонную черту общая и нижняя облачность в баллах и высота нижней границы облаков в метрах; квадратными скобками обозначены формы облаков: Ci - перистые, Cs - перисто-слоистые, Cc - перисто-кучевые, Ac - высококучевые, As - высокослоистые, Sc - слоисто-кучевые, Ns - слоисто-дождевые, Cu - кучевые, Cb - кучево-дождевые. Подробнее классификацию облаков см. в Атласе облаков (PDF).
  • T - Температура воздуха - температура, измеренная на высоте 2 м над землей.
  • Td - Температура точки росы - температура, при понижении до которой содержащийся в воздухе водяной пар достигнет насыщения.
  • f - Относительная влажность воздуха - влажноcть воздуха, измеренная на высоте 2 м над землей.
  • Te - Эффективная температура - температура, которую ощущает одетый по сезону человек в тени. Характеристика душности погоды. При расчете учитывается влияние влажности воздуха и скорости ветра на теплоощущения человека.
  • Tes - Эффективная температура на солнце - температура, которую ощущает человек, с поправкой на солнечный нагрев. Характеристика знойности погоды. Зависит от высоты солнца над горизонтом, облачности и скорости ветра. Ночью, в пасмурную погоду, а также при ветре 12 м/с и более поправка равна нулю.
  • P - Атмосферное давление - приведенное к уровню моря атмосферное давление.
  • Po - Атмосферное давление - измеренное на уровне метеостанции атмосферное давление.
  • Tmin - Минимальная температура - минимум температуры воздуха на высоте 2 м над землей.
  • Tmax - Максимальная температура - максимум температуры воздуха на высоте 2 м над землей.
  • R - Количество осадков - Количество выпавших осадков за период времени, мм. При наведении курсора мыши на число - период времени, за который выпало указанное количество осадков.
  • R24 - Количество осадков - Количество выпавших осадков за 24 часа, мм.
  • S - Снежный покров - Высота снежного покрова, см. При наведении курсора мыши на число - состояние снежного покрова и степень покрытия местности в баллах.